Location: Unspecified
(0.0000°N, 0.0000°E)
Time: 00:05:17
(UTC+02:00)

Cosmos 1953 Rocket - Visible Passes

Search period start: 30 September 2016 00:00
Search period end: 10 October 2016 00:00
Orbit: 606 x 634 km, 82.5° (Epoch: 29 September)

Date Brightness Start Highest point End Pass type
(mag) Time Alt. Az. Time Alt. Az. Time Alt. Az.
30 Sep 3.5 07:05:38 10° S 07:10:02 75° W 07:14:28 10° N visible
01 Oct 4.3 07:23:43 10° SSW 07:27:37 31° W 07:31:34 10° NNW visible
02 Oct 6.1 06:04:13 10° SE 06:07:38 22° E 06:11:04 10° NE visible
03 Oct 4.4 06:20:57 10° S 06:25:14 50° E 06:29:32 10° NNE visible
04 Oct 3.5 06:38:26 10° S 06:42:50 67° W 06:47:14 10° N visible
05 Oct 6.9 05:21:48 10° ESE 05:22:50 11° E 05:23:53 10° E visible
05 Oct 4.4 06:56:37 10° SW 07:00:25 28° W 07:04:15 10° NNW visible
06 Oct 5.8 05:36:48 10° SSE 05:40:26 25° E 05:44:03 10° NE visible
06 Oct 5.3 07:16:06 10° WSW 07:18:01 13° W 07:19:57 10° WNW visible
07 Oct 4.1 05:53:40 10° S 05:58:01 57° E 06:02:23 10° NNE visible
08 Oct 6.0 06:19:58 10° N 06:19:58 10° N 06:20:01 10° N visible
